Content
SEND FEEDBACK

Daily
Averages
Monthly
Summary
United States of America

SOUTH LAKE TAHOE, CALIFORNIA


Home > North America > United States > California
Elevation: 6263 feet     Latitude: 38 53N     Longitude: 119 59W

WEATHER
 
SELECT A DAY
Number of Records: 174,493;   Date Range: 1/1/95 - 8/12/14
 
SHARE

PRINT THIS DATA

[ ← Previous Day ]
WEATHER ALMANAC - MARCH 19, 2013
[ Next Day → ]
[ °C ]   °F
Weather ElementAverageHighLow
Temperature44.4 °F54 °F (2:53 pm)39 °F (5:53 am)
Dewpoint29.8 °F35.6 °F (7:39 pm)23 °F (1:53 am)
Humidity58.4 %77 % (10:53 pm)37 % (2:53 pm)
Barometer30.06 in30.11 in (7:39 pm)30.02 in (10:53 pm)
Wind Speed9.1 mph16.1 mph (6:53 pm)
Wind Gust27.6 mph (6:53 pm)
Weather ElementAverage
Visibility9.8 mi
Wind DirectionS (179.2 °)

Weather ElementTotal
Precipitation0.01 in
Heating Degree Days18.5 (Base 65)
Averaged from 24 records on March 19, 2013
WEATHER CONDITIONS BREAKOUT
WIND DIRECTION BREAKOUT
WEATHER BY HOUR - MARCH 19, 2013
[ °C ]   °F
Local TimeTemperatureDewpointHumidityBarometerVisibilityWind DirectionWind SpeedGust SpeedPrecipitationEventsConditions
1:53 AM39.9 °F23.0 °F51 %30.05 in10.0 miSouth (180°)5.8 mphOvercast
2:53 AM39.9 °F25.0 °F55 %30.04 in10.0 miSE (130°)5.8 mphOvercast
3:53 AM42.1 °F25.0 °F51 %30.03 in10.0 miSouth (180°)10.4 mphOvercast
4:53 AM39.9 °F26.1 °F58 %30.04 in10.0 miSSW (210°)5.8 mphOvercast
5:53 AM39.0 °F28.9 °F67 %30.05 in10.0 miSSW (200°)9.2 mphOvercast
6:53 AM39.9 °F28.9 °F65 %30.06 in10.0 miSouth (170°)5.8 mphOvercast
7:53 AM39.0 °F28.9 °F67 %30.08 in10.0 miCalmOvercast
8:53 AM44.1 °F30.0 °F58 %30.09 in10.0 miSouth (190°)5.8 mphOvercast
9:53 AM45.0 °F28.9 °F53 %30.09 in10.0 miSouth (170°)4.6 mphOvercast
10:53 AM48.9 °F28.9 °F46 %30.08 in10.0 miSouth (190°)11.5 mph16.1 mphPartly Cloudy
11:53 AM51.1 °F27.0 °F39 %30.07 in10.0 miSouth (190°)11.5 mph23.0 mphScattered Clouds
12:53 PM53.1 °F28.0 °F38 %30.06 in10.0 miSouth (190°)11.5 mph19.6 mphScattered Clouds
1:53 PM52.0 °F28.0 °F40 %30.07 in10.0 miSouth (190°)13.8 mph20.7 mphPartly Cloudy
2:53 PM54.0 °F28.0 °F37 %30.04 in10.0 miSSW (210°)9.2 mph23.0 mphPartly Cloudy
3:53 PM52.0 °F28.0 °F40 %30.04 in10.0 miSSW (210°)11.5 mph21.9 mphClear
5:53 PM46.9 °F33.1 °F59 %30.06 in10.0 miSSW (200°)11.5 mph0.00 inScattered Clouds
6:53 PM46.9 °F30.0 °F52 %30.04 in10.0 miSouth (190°)16.1 mph27.6 mphMostly Cloudy
7:39 PM44.6 °F35.6 °F71 %30.11 in10.0 miSouth (190°)15.0 mph21.9 mph0.00 inRainLight Rain
7:53 PM43.0 °F35.1 °F74 %30.06 in9.0 miSSW (200°)11.5 mph0.00 inRainLight Rain
8:19 PM42.8 °F35.6 °F76 %30.11 in10.0 miSW (220°)6.9 mph0.00 inRainLight Rain
8:53 PM41.0 °F34.0 °F76 %30.05 in10.0 miSSW (200°)6.9 mph0.00 inRainLight Rain
9:53 PM41.0 °F34.0 °F76 %30.05 in10.0 miSouth (180°)9.2 mph0.00 inRainLight Rain
10:53 PM39.9 °F33.1 °F77 %30.02 in8.0 miSSE (160°)9.2 mph0.00 inRainLight Rain
11:53 PM39.0 °F32.0 °F76 %30.02 in9.0 miSSE (150°)9.2 mph0.01 inRainLight Rain
Hourly data recorded from KTVL, located miles away from South Lake Tahoe, California







STORIES FROM OUR PARTNERS